Regional Weather Roundup
Issued by NWS

Home | Current Version | Previous Version | Text Only | Print | Product List | Glossary Off
Versions: 1 2 3 4 5 6 7 8 9 10 11 12 13 14 15 16 17 18 19 20 21 22 23 24 25 26 27 28 29 30 31 32 33 34 35 36 37 38 39 40 41 42 43 44 45 46 47 48 49 50

000
ASUS45 KABQ 271810
RWRNM
WEATHER ROUNDUP FOR NEW MEXICO
NATIONAL WEATHER SERVICE ALBUQUERQUE NM
1200 PM MDT WED AUG 27 2014

NOTE: "FAIR" MEANS FEW OR NO CLOUDS BELOW 12,000 FEET AGL WITH NO
       SIGNIFICANT WEATHER OR OBSTRUCTIONS TO VISION.

      THIS PRODUCT IS RELEASED AS TWO VERSIONS.  ONE VERSION NEAR
      THE TOP OF THE HOUR CONTAINING PRELIMINARY DATA FROM ALBUQUERQUE
      AND OTHER STATIONS.  A FINAL VERSION WITH ADDITIONAL DATA IS
      ISSUED ABOUT 10 MINUTES AFTER THE HOUR.

NMZ501-503-504-510>518-271900-
NORTHWEST PLATEAU/NORTHCENTRAL MOUNTAINS

CITY           SKY/WX    TMP DP  RH WIND       PRES   REMARKS
FARMINGTON     PTSUNNY   65  53  65 CALM      30.32F
6HR MIN TEMP:  52; 6HR MAX TEMP:  66;

LOS ALAMOS     CLOUDY    64  54  69 SE3       30.39F
SANTA FE       SUNNY     71  54  54 VRB7      30.33F
6HR MIN TEMP:  56; 6HR MAX TEMP:  71;

ANGEL FIRE     FAIR      61  48  61 W12G23    30.43F

$$
NMZ402-403-502-505>509-271900-
WESTCENTRAL MOUNTAINS/SOUTHWEST MOUNTAINS

CITY           SKY/WX    TMP DP  RH WIND       PRES   REMARKS
GALLUP         PTSUNNY   66  51  58 VRB6      30.38F
6HR MIN TEMP:  45; 6HR MAX TEMP:  66; 6HR PCP:  0.01;

SILVER CITY    SUNNY     77  54  44 W5        30.32F

$$
NMZ407-409-411-412-271900-
SOUTHERN DESERTS

CITY           SKY/WX    TMP DP  RH WIND       PRES   REMARKS
LORDSBURG      FAIR      77  59  53 NE3       30.24F
DEMING         SUNNY     82  58  43 VRB7      30.23F
6HR MIN TEMP:  63; 6HR MAX TEMP:  82;

LAS CRUCES     CLOUDY    79  61  54 CALM      30.25F
HOLLOMAN AFB   MOSUNNY   74  63  69 VRB3      30.22F
ALAMOGORDO     PTSUNNY   72  63  73 CALM      30.25S
T OR C         SUNNY     74  60  61 VRB3      30.27F
6HR MIN TEMP:  61; 6HR MAX TEMP:  74;


$$
NMZ519>523-271900-
CENTRAL VALLEYS/CENTRAL HIGHLANDS

CITY           SKY/WX    TMP DP  RH WIND       PRES   REMARKS
ALBUQUERQUE    MOSUNNY   72  54  53 W5        30.31F
6HR MIN TEMP:  60; 6HR MAX TEMP:  72;

DOUBLE EAGLE   MOSUNNY   70  54  56 VRB5      30.34S
MORIARTY ARPT  FAIR      73  50  44 W10       30.34F
6HR MIN TEMP:  55; 6HR MAX TEMP:  73;

CLINES CORNERS MOSUNNY   68  52  56 NW13      30.36S
6HR MIN TEMP:  55; 6HR MAX TEMP:  69;

BELEN          FAIR      73  55  54 CALM      30.31S
6HR MIN TEMP:  56; 6HR MAX TEMP:  73;

SOCORRO        FAIR      72  60  64 CALM      30.28F
6HR MIN TEMP:  58; 6HR MAX TEMP:  73;


$$
NMZ524>526-539-540-271900-
SOUTHCENTRAL MOUNTAINS

CITY           SKY/WX    TMP DP  RH WIND       PRES   REMARKS
RUIDOSO        MOSUNNY   70  55  60 S3        30.39F

$$
NMZ527>531-271900-
NORTHEAST HIGHLANDS/NORTHEAST PLAINS

CITY           SKY/WX    TMP DP  RH WIND       PRES   REMARKS
LAS VEGAS      SUNNY     72  50  45 CALM      30.32F
6HR MIN TEMP:  54; 6HR MAX TEMP:  72;

RATON          SUNNY     72  55  55 S7        30.25F
6HR MIN TEMP:  59; 6HR MAX TEMP:  72; 6HR PCP: TRACE;

CLAYTON        CLOUDY    76  57  51 S17G26    30.20F
6HR MIN TEMP:  63; 6HR MAX TEMP:  77;


$$
NMZ532>537-271900-
EASTCENTRAL PLAINS

CITY           SKY/WX    TMP DP  RH WIND       PRES   REMARKS
TUCUMCARI      LGT RAIN  81  59  47 W10       30.17F
6HR MIN TEMP:  67; 6HR MAX TEMP:  83;

CANNON AFB     PTSUNNY   79  60  52 SW7       30.21S
6HR MIN TEMP:  66; 6HR MAX TEMP:  79;

CLOVIS AIRPORT   N/A     81  57  44 S6        30.22F

$$
NMZ028-029-538-271900-
SOUTHEAST PLAINS

CITY           SKY/WX    TMP DP  RH WIND       PRES   REMARKS
ROSWELL        PTSUNNY   78  61  55 S3        30.18F
6HR MIN TEMP:  70; 6HR MAX TEMP:  78; 6HR PCP: TRACE;

CARLSBAD       PTSUNNY   78  62  57 NW8       30.16F
6HR MIN TEMP:  71; 6HR MAX TEMP:  79;

HOBBS          SUNNY     86  54  32 S10       30.18F


$$


USA.gov is the U.S. government's official web portal to all federal, state and local government web resources and services.